Time,TemperatureF,DewpointF,PressureIn,WindDirection,WindDirectionDegrees,WindSpeedMPH,WindSpeedGustMPH,Humidity,HourlyPrecipIn,Conditions,Clouds,dailyrainin,SoftwareType,DateUTC
2013-10-03 01:23:00,70.0,67.0,30.08,South,180,0.0,0.0,89,0.00,,,0.00,,2013-10-03 05:23:00,
2013-10-03 01:52:00,69.0,67.0,30.08,WSW,242,0.0,3.0,92,0.00,,,0.00,,2013-10-03 05:52:00,
2013-10-03 02:22:00,68.0,66.0,30.08,WSW,244,0.0,2.0,92,0.00,,,0.00,,2013-10-03 06:22:00,
2013-10-03 02:52:00,67.0,65.0,30.07,WSW,253,0.0,2.0,92,0.00,,,0.00,,2013-10-03 06:52:00,
2013-10-03 03:22:00,66.0,64.0,30.07,WSW,253,0.0,2.0,93,0.00,,,0.00,,2013-10-03 07:22:00,
2013-10-03 03:52:00,66.0,64.0,30.06,WNW,285,1.0,3.0,93,0.00,,,0.00,,2013-10-03 07:52:00,
2013-10-03 04:22:00,66.0,64.0,30.06,West,278,1.0,4.0,93,0.00,,,0.00,,2013-10-03 08:22:00,
2013-10-03 04:42:00,65.0,63.0,30.06,West,281,2.0,5.0,93,0.00,,,0.00,,2013-10-03 08:42:00,
2013-10-03 04:52:00,65.0,63.0,30.06,WNW,290,1.0,4.0,93,0.00,,,0.00,,2013-10-03 08:52:00,
2013-10-03 05:22:00,65.0,63.0,30.06,WNW,294,0.0,4.0,94,0.00,,,0.00,,2013-10-03 09:22:00,
2013-10-03 05:53:00,65.0,63.0,30.06,WNW,294,2.0,5.0,94,0.00,,,0.00,,2013-10-03 09:53:00,
2013-10-03 06:23:00,65.0,63.0,30.06,WNW,289,1.0,4.0,94,0.00,,,0.00,,2013-10-03 10:23:00,
2013-10-03 06:52:00,65.0,63.0,30.07,NW,310,2.0,6.0,94,0.00,,,0.00,,2013-10-03 10:52:00,
2013-10-03 07:23:00,64.0,63.0,30.08,NW,314,2.0,7.0,95,0.00,,,0.00,,2013-10-03 11:23:00,
2013-10-03 07:52:00,64.0,63.0,30.08,WNW,296,2.0,7.0,95,0.00,,,0.00,,2013-10-03 11:52:00,
2013-10-03 08:22:00,65.0,64.0,30.09,West,269,2.0,6.0,95,0.00,,,0.00,,2013-10-03 12:22:00,
2013-10-03 08:52:00,67.0,65.0,30.09,WNW,297,2.0,6.0,94,0.00,,,0.00,,2013-10-03 12:52:00,
2013-10-03 09:22:00,69.0,67.0,30.10,WNW,294,2.0,6.0,92,0.00,,,0.00,,2013-10-03 13:22:00,
2013-10-03 09:52:00,72.0,68.0,30.11,NNW,345,2.0,5.0,88,0.00,,,0.00,,2013-10-03 13:52:00,
2013-10-03 10:22:00,75.0,70.0,30.11,NNW,331,0.0,3.0,84,0.00,,,0.00,,2013-10-03 14:22:00,
2013-10-03 10:52:00,79.0,71.0,30.12,East,96,0.0,1.0,76,0.00,,,0.00,,2013-10-03 14:52:00,
2013-10-03 11:22:00,80.0,70.0,30.12,ESE,103,0.0,1.0,72,0.00,,,0.00,,2013-10-03 15:22:00,
2013-10-03 11:54:00,80.0,71.0,30.12,NE,51,0.0,2.0,73,0.00,,,0.00,,2013-10-03 15:54:00,
2013-10-03 12:23:00,81.0,72.0,30.11,NE,53,0.0,2.0,73,0.00,,,0.00,,2013-10-03 16:23:00,
2013-10-03 12:53:00,80.0,71.0,30.11,ESE,119,0.0,4.0,75,0.00,,,0.00,,2013-10-03 16:53:00,
2013-10-03 13:22:00,81.0,72.0,30.11,SE,139,0.0,3.0,75,0.00,,,0.00,,2013-10-03 17:22:00,
2013-10-03 13:52:00,82.0,72.0,30.10,SE,124,1.0,3.0,73,0.00,,,0.00,,2013-10-03 17:52:00,
2013-10-03 14:22:00,81.0,72.0,30.09,ESE,107,0.0,3.0,75,0.00,,,0.00,,2013-10-03 18:22:00,
2013-10-03 14:52:00,83.0,73.0,30.08,ESE,109,1.0,3.0,71,0.00,,,0.00,,2013-10-03 18:52:00,
2013-10-03 15:22:00,82.0,71.0,30.08,SSE,159,0.0,3.0,70,0.00,,,0.00,,2013-10-03 19:22:00,
2013-10-03 15:52:00,82.0,71.0,30.07,SE,132,0.0,3.0,70,0.00,,,0.00,,2013-10-03 19:52:00,
2013-10-03 16:22:00,81.0,71.0,30.07,SE,124,0.0,2.0,71,0.00,,,0.00,,2013-10-03 20:22:00,
2013-10-03 16:52:00,80.0,71.0,30.07,NNE,25,0.0,2.0,74,0.00,,,0.00,,2013-10-03 20:52:00,
2013-10-03 17:21:00,80.0,72.0,30.06,East,80,0.0,1.0,76,0.00,,,0.00,,2013-10-03 21:21:00,
2013-10-03 17:54:00,79.0,72.0,30.06,ENE,65,0.0,3.0,78,0.00,,,0.00,,2013-10-03 21:54:00,
2013-10-03 18:23:00,78.0,71.0,30.06,SE,135,0.0,3.0,80,0.00,,,0.00,,2013-10-03 22:23:00,
2013-10-03 18:43:00,78.0,72.0,30.06,NE,51,0.0,2.0,81,0.00,,,0.00,,2013-10-03 22:43:00,
2013-10-03 18:54:00,77.0,71.0,30.06,ESE,120,0.0,3.0,83,0.00,,,0.00,,2013-10-03 22:54:00,
2013-10-03 19:22:00,77.0,72.0,30.06,ESE,102,0.0,2.0,85,0.00,,,0.00,,2013-10-03 23:22:00,
2013-10-03 19:53:00,76.0,72.0,30.06,ENE,71,0.0,2.0,87,0.00,,,0.00,,2013-10-03 23:53:00,
2013-10-03 20:22:00,76.0,72.0,30.07,East,80,0.0,1.0,88,0.00,,,0.00,,2013-10-04 00:22:00,
2013-10-03 20:52:00,76.0,73.0,30.07,ESE,113,0.0,1.0,89,0.00,,,0.00,,2013-10-04 00:52:00,
2013-10-03 21:12:00,76.0,73.0,30.07,ESE,113,0.0,1.0,90,0.00,,,0.00,,2013-10-04 01:12:00,
2013-10-03 21:22:00,76.0,73.0,30.08,ESE,112,0.0,1.0,90,0.00,,,0.00,,2013-10-04 01:22:00,
2013-10-03 21:52:00,75.0,72.0,30.08,ESE,112,0.0,1.0,90,0.00,,,0.00,,2013-10-04 01:52:00,
2013-10-03 22:22:00,75.0,72.0,30.09,ESE,112,0.0,0.0,91,0.00,,,0.00,,2013-10-04 02:22:00,
2013-10-03 22:52:00,75.0,72.0,30.09,ESE,112,0.0,0.0,91,0.00,,,0.00,,2013-10-04 02:52:00,
2013-10-03 23:22:00,73.0,71.0,30.09,ESE,112,0.0,0.0,92,0.00,,,0.00,,2013-10-04 03:22:00,